STARLINK-32122, 60285

Orbit data source: Space-Track

STARLINK-32122, 60285 is a payload satellite owned by SpaceX/Seattle (US) in LEO that was launched on Sun, 28 Jul 2024 UTC via an FALCON 9 launch vehicle from the Air Force Eastern Test Range (AFETR). Payload-class satellites include a variety of spacecraft equipped with specific instruments for various scientific and technological missions. These include communications satellites like Starlink; space stations such as the ISS; scientific satellites like the Hubble; Earth observation satellites from companies like Planet Labs, Umbra, and HawkEye 360; GPS; miniature CubeSats for education and research; and military/defense satellites.

Loading next visibility...
Identifier
60285, 2024-132H
Orbit
LEO
Last TLE update
22 hours ago
Origin
Manufacturer
SpaceX/Seattle
Mission
Operational spacecraft
Bus & Motor
STARLINK V2M, Unknown motor
Mass
730 kg wet, ~700 kg dry
Launch date (UTC)
2024-07-28 (1 year ago)
Launch vehicle
FALCON 9
Launch site
Air Force Eastern Test Range (AFETR)
Object type
Payload
Rocket body
Debris
Shape & HBR
Unknown
Radar Cross Section
Large (>1 m²)

Expand to show TLE details & history

TLE from 22 hours ago
0 STARLINK-32122
1 60285U 24132H   25199.03736710  .00000366  00000-0  24493-4 0  9997
2 60285  53.1603  62.3987 0001212  81.9084 278.2055 15.30194084 55635
Epoch: 2025-07-18T00:53Z
TLE epoch observation values (Epoch: 2025-07-18T00:53:48.517Z)
Latitude
0.00004°
Longitude
112.852°
Altitude
476.014 km
Speed
7.629 km/s
True Right ascension
04h 09m 35s
True Declination
0° 00' 00"
Sunlit
Object was in daylight at epoch
Visualization orbit readout
Latitude
51.15005°
Longitude
-139.15009°
Altitude
480.527 km
Speed
7.632 km/s
Apparent Right ascension
03h 28m 18s
Apparent Declination
49° 49' 23"
Sunlit
Object is in daylight
Visualization observer readout
Local Sidereal Time
12:05:13
Azimuth
329.484° NNW
Elevation
10.214°
Doppler factor
1
Orbital elements
Apogee altitude
476.32 km
Perigee altitude
474.658 km
Semi-major axis
6,853.626 km
Eccentricity
0.00012
Inclination
53.1603°
RAAN
62.3987°
Arg. of periapsis
81.9084°
True anomaly
278.19175°
Mean anomaly
278.2055°
Eccentric anomaly
278.19863°
Mean motion
3.82527 °/min
Orbital period
94.11 mins
BSTAR
0.000024493
Loading maneuver chart data...
Loading SW <> Apogee altitude chart data...
Loading historical data...
Loading historical data...
Loading historical data...
Loading historical data...
Loading historical data...
Loading historical data...
Loading historical data...
|